| time (UTC) | temp F | wind direction | speed MPH | gust MPH | rain 1hr in | rain 24hr in | rain mn in | humidity % | barometer mb |
| 20260906203736 | 74 | 0 | 0.0 | 1.0 | 0.00 | 0.00 | 0.00 | 71 | 1018.3 |
| 20260906201312 | 74 | 0 | 0.0 | 3.0 | 0.00 | 0.00 | 0.00 | 66 | 1018.3 |
| 20260906200112 | 74 | 0 | 0.0 | 2.0 | 0.00 | 0.00 | 0.00 | 67 | 1018.4 |
| 20260906194202 | 75 | 0 | 0.0 | 4.0 | 0.00 | 0.00 | 0.00 | 66 | 1018.6 |
| 20260906193001 | 75 | 0 | 0.0 | 4.0 | 0.00 | 0.00 | 0.00 | 66 | 1018.6 |
| 20260906191801 | 75 | 0 | 0.0 | 4.0 | 0.00 | 0.00 | 0.00 | 65 | 1018.7 |
| 20260906190601 | 76 | 0 | 0.0 | 6.0 | 0.00 | 0.00 | 0.00 | 69 | 1018.7 |
| 20260906185401 | 75 | 307 | 1.0 | 8.0 | 0.00 | 0.00 | 0.00 | 67 | 1018.7 |
| 20260906184201 | 74 | 0 | 0.0 | 4.0 | 0.00 | 0.00 | 0.00 | 70 | 1018.8 |
| 20260906183001 | 74 | 0 | 0.0 | 1.0 | 0.00 | 0.00 | 0.00 | 74 | 1018.9 |
| 20260906181801 | 74 | 0 | 0.0 | 5.0 | 0.00 | 0.00 | 0.00 | 72 | 1019.0 |
| 20260906180601 | 74 | 0 | 0.0 | 3.0 | 0.00 | 0.00 | 0.00 | 72 | 1019.1 |
| 20260906175401 | 75 | 0 | 0.0 | 4.0 | 0.00 | 0.00 | 0.00 | 70 | 1019.2 |
| 20260906174201 | 74 | 338 | 1.0 | 4.0 | 0.00 | 0.00 | 0.00 | 70 | 1019.2 |
| 20260906173001 | 74 | 0 | 0.0 | 4.0 | 0.00 | 0.00 | 0.00 | 72 | 1019.3 |
| 20260906171801 | 74 | 0 | 0.0 | 2.0 | 0.00 | 0.00 | 0.00 | 74 | 1019.2 |
| 20260906170601 | 73 | 0 | 0.0 | 4.0 | 0.00 | 0.00 | 0.00 | 74 | 1019.2 |
| 20260906165401 | 73 | 0 | 0.0 | 3.0 | 0.00 | 0.00 | 0.00 | 74 | 1019.2 |
| 20260906164201 | 73 | 0 | 0.0 | 3.0 | 0.00 | 0.00 | 0.00 | 80 | 1019.2 |
| 20260906163002 | 72 | 0 | 0.0 | 3.0 | 0.00 | 0.00 | 0.00 | 80 | 1019.2 |
| 20260906161801 | 72 | 0 | 0.0 | 3.0 | 0.00 | 0.00 | 0.00 | 79 | 1019.3 |
| 20260906155930 | 72 | 0 | 0.0 | 2.0 | 0.00 | 0.00 | 0.00 | 79 | 1019.3 |
| 20260906154730 | 71 | 0 | 0.0 | 3.0 | 0.00 | 0.00 | 0.00 | 80 | 1019.3 |
| 20260906153531 | 71 | 0 | 0.0 | 3.0 | 0.00 | 0.00 | 0.00 | 84 | 1019.3 |
| 20260906152330 | 70 | 0 | 0.0 | 5.0 | 0.00 | 0.00 | 0.00 | 85 | 1019.0 |
| 20260906151131 | 69 | 0 | 0.0 | 2.0 | 0.00 | 0.00 | 0.00 | 87 | 1019.0 |
| 20260906145930 | 69 | 0 | 0.0 | 3.0 | 0.00 | 0.00 | 0.00 | 89 | 1019.0 |
| 20260906144730 | 68 | 0 | 0.0 | 1.0 | 0.00 | 0.00 | 0.00 | 90 | 1018.8 |
| 20260906143530 | 68 | 0 | 0.0 | 1.0 | 0.00 | 0.00 | 0.00 | 92 | 1018.9 |
| 20260906142331 | 67 | 0 | 0.0 | 2.0 | 0.00 | 0.00 | 0.00 | 93 | 1018.9 |
| 20260906141130 | 66 | 0 | 0.0 | 1.0 | 0.00 | 0.00 | 0.00 | 92 | 1019.0 |
| 20260906135512 | 65 | 0 | 0.0 | 1.0 | 0.00 | 0.00 | 0.00 | 92 | 1018.7 |
| 20260906134311 | 64 | 0 | 0.0 | 2.0 | 0.00 | 0.00 | 0.00 | 92 | 1018.7 |
| 20260906133111 | 64 | 0 | 0.0 | 1.0 | 0.00 | 0.00 | 0.00 | 92 | 1018.5 |
| 20260906131911 | 63 | 0 | 0.0 | 0.0 | 0.00 | 0.00 | 0.00 | 92 | 1018.5 |
| 20260906130712 | 62 | 0 | 0.0 | 0.0 | 0.00 | 0.00 | 0.00 | 92 | 1018.6 |
| 20260906124625 | 61 | 0 | 0.0 | 0.0 | 0.00 | 0.00 | 0.00 | 92 | 1018.5 |
| 20260906123425 | 61 | 0 | 0.0 | 0.0 | 0.00 | 0.00 | 0.00 | 92 | 1018.5 |
| 20260906122224 | 60 | 0 | 0.0 | 0.0 | 0.00 | 0.00 | 0.00 | 92 | 1018.3 |
| 20260906121025 | 60 | 0 | 0.0 | 0.0 | 0.00 | 0.00 | 0.00 | 92 | 1018.2 |
| 20260906115825 | 60 | 0 | 0.0 | 0.0 | 0.00 | 0.00 | 0.00 | 92 | 1018.1 |
| 20260906113325 | 60 | 0 | 0.0 | 0.0 | 0.00 | 0.00 | 0.00 | 92 | 1017.7 |
| 20260906112125 | 60 | 0 | 0.0 | 0.0 | 0.00 | 0.00 | 0.00 | 92 | 1017.6 |
| 20260906110926 | 60 | 0 | 0.0 | 0.0 | 0.00 | 0.00 | 0.00 | 92 | 1017.6 |
| 20260906105725 | 60 | 0 | 0.0 | 0.0 | 0.00 | 0.00 | 0.00 | 92 | 1017.6 |
| 20260906104525 | 60 | 0 | 0.0 | 0.0 | 0.00 | 0.00 | 0.00 | 92 | 1017.5 |
| 20260906103325 | 60 | 0 | 0.0 | 0.0 | 0.00 | 0.00 | 0.00 | 92 | 1017.4 |
| 20260906102125 | 60 | 0 | 0.0 | 0.0 | 0.00 | 0.00 | 0.00 | 92 | 1017.3 |
| 20260906100925 | 60 | 0 | 0.0 | 0.0 | 0.00 | 0.00 | 0.00 | 92 | 1017.3 |
| 20260906095726 | 60 | 0 | 0.0 | 0.0 | 0.00 | 0.00 | 0.00 | 92 | 1017.2 |
| 20260906094525 | 60 | 0 | 0.0 | 0.0 | 0.00 | 0.00 | 0.00 | 92 | 1017.2 |
| 20260906091943 | 60 | 0 | 0.0 | 0.0 | 0.00 | 0.00 | 0.00 | 92 | 1016.9 |
| 20260906090743 | 60 | 0 | 0.0 | 0.0 | 0.00 | 0.00 | 0.00 | 92 | 1016.7 |
| 20260906085543 | 60 | 0 | 0.0 | 0.0 | 0.00 | 0.00 | 0.00 | 92 | 1016.7 |
| 20260906084342 | 60 | 0 | 0.0 | 0.0 | 0.00 | 0.01 | 0.00 | 92 | 1016.5 |
| 20260906082036 | 60 | 0 | 0.0 | 0.0 | 0.00 | 0.01 | 0.00 | 92 | 1016.4 |
| 20260906080836 | 60 | 0 | 0.0 | 0.0 | 0.00 | 0.01 | 0.00 | 92 | 1016.4 |
| 20260906075635 | 60 | 0 | 0.0 | 0.0 | 0.00 | 0.01 | 0.00 | 92 | 1016.3 |
| 20260906074436 | 60 | 0 | 0.0 | 0.0 | 0.00 | 0.01 | 0.00 | 92 | 1016.2 |
| 20260906073236 | 61 | 0 | 0.0 | 0.0 | 0.00 | 0.01 | 0.00 | 93 | 1016.3 |
| 20260906072036 | 61 | 0 | 0.0 | 0.0 | 0.00 | 0.01 | 0.00 | 93 | 1016.1 |
| 20260906070836 | 61 | 0 | 0.0 | 0.0 | 0.00 | 0.01 | 0.00 | 92 | 1016.2 |
| 20260906065636 | 61 | 0 | 0.0 | 0.0 | 0.00 | 0.01 | 0.00 | 92 | 1016.2 |
| 20260906064436 | 61 | 0 | 0.0 | 0.0 | 0.00 | 0.01 | 0.00 | 93 | 1016.2 |
| 20260906063236 | 61 | 0 | 0.0 | 0.0 | 0.00 | 0.01 | 0.00 | 93 | 1016.4 |
| 20260906062036 | 61 | 0 | 0.0 | 0.0 | 0.00 | 0.01 | 0.00 | 93 | 1016.4 |
| 20260906060836 | 61 | 0 | 0.0 | 0.0 | 0.00 | 0.01 | 0.00 | 93 | 1016.4 |
| 20260906055636 | 61 | 0 | 0.0 | 0.0 | 0.00 | 0.01 | 0.00 | 93 | 1016.5 |
| 20260906054436 | 61 | 0 | 0.0 | 0.0 | 0.00 | 0.01 | 0.00 | 93 | 1016.5 |
| 20260906053236 | 61 | 0 | 0.0 | 0.0 | 0.00 | 0.01 | 0.00 | 93 | 1016.5 |
| 20260906052036 | 61 | 0 | 0.0 | 0.0 | 0.00 | 0.01 | 0.00 | 93 | 1016.5 |
| 20260906044913 | 61 | 0 | 0.0 | 0.0 | 0.00 | 0.01 | 0.00 | 93 | 1016.2 |
| 20260906043714 | 61 | 0 | 0.0 | 0.0 | 0.00 | 0.01 | 0.00 | 93 | 1016.1 |
| 20260906042514 | 62 | 0 | 0.0 | 0.0 | 0.00 | 0.01 | 0.00 | 92 | 1016.0 |
| 20260906041314 | 62 | 0 | 0.0 | 0.0 | 0.00 | 0.01 | 0.00 | 93 | 1016.0 |
| 20260906040114 | 62 | 0 | 0.0 | 0.0 | 0.00 | 0.01 | 0.00 | 93 | 1016.0 |
| 20260906034914 | 62 | 0 | 0.0 | 0.0 | 0.00 | 0.01 | 0.00 | 93 | 1015.9 |
| 20260906033714 | 62 | 0 | 0.0 | 0.0 | 0.00 | 0.01 | 0.01 | 92 | 1015.9 |
| 20260906032514 | 62 | 0 | 0.0 | 0.0 | 0.00 | 0.01 | 0.01 | 93 | 1015.8 |
| 20260906031314 | 63 | 0 | 0.0 | 0.0 | 0.00 | 0.01 | 0.01 | 93 | 1015.8 |
| 20260906030113 | 63 | 0 | 0.0 | 0.0 | 0.00 | 0.01 | 0.01 | 93 | 1015.7 |
| 20260906021713 | 63 | 0 | 0.0 | 0.0 | 0.00 | 0.01 | 0.01 | 93 | 1015.5 |
| 20260906020513 | 64 | 0 | 0.0 | 0.0 | 0.00 | 0.01 | 0.01 | 92 | 1015.5 |
| 20260906015007 | 64 | 0 | 0.0 | 0.0 | 0.00 | 0.01 | 0.01 | 92 | 1015.4 |
| 20260906013806 | 64 | 0 | 0.0 | 0.0 | 0.00 | 0.01 | 0.01 | 92 | 1015.4 |
| 20260906012606 | 65 | 0 | 0.0 | 0.0 | 0.00 | 0.01 | 0.01 | 92 | 1015.2 |
| 20260906011407 | 65 | 0 | 0.0 | 0.0 | 0.00 | 0.01 | 0.01 | 92 | 1015.3 |
| 20260906010207 | 65 | 0 | 0.0 | 0.0 | 0.00 | 0.01 | 0.01 | 92 | 1015.2 |
| 20260906005006 | 66 | 0 | 0.0 | 0.0 | 0.00 | 0.01 | 0.01 | 92 | 1015.1 |
| 20260906003807 | 66 | 0 | 0.0 | 0.0 | 0.00 | 0.00 | 0.00 | 91 | 1015.2 |
| 20260906002607 | 67 | 0 | 0.0 | 0.0 | 0.00 | 0.00 | 0.00 | 90 | 1015.1 |
| 20260906001407 | 67 | 0 | 0.0 | 0.0 | 0.00 | 0.00 | 0.00 | 90 | 1014.8 |
| 20260906000207 | 68 | 0 | 0.0 | 0.0 | 0.00 | 0.00 | 0.00 | 89 | 1014.8 |
| 20260905235007 | 69 | 0 | 0.0 | 0.0 | 0.00 | 0.00 | 0.00 | 89 | 1014.8 |
| 20260905233806 | 69 | 0 | 0.0 | 0.0 | 0.00 | 0.00 | 0.00 | 89 | 1014.8 |
| 20260905232606 | 69 | 0 | 0.0 | 0.0 | 0.00 | 0.00 | 0.00 | 89 | 1014.7 |
| 20260905231407 | 70 | 0 | 0.0 | 0.0 | 0.00 | 0.00 | 0.00 | 88 | 1014.7 |
| 20260905230207 | 70 | 0 | 0.0 | 0.0 | 0.00 | 0.00 | 0.00 | 87 | 1014.7 |
| 20260905225007 | 71 | 0 | 0.0 | 0.0 | 0.00 | 0.00 | 0.00 | 86 | 1014.8 |
| 20260905223807 | 71 | 0 | 0.0 | 0.0 | 0.00 | 0.00 | 0.00 | 86 | 1014.8 |
| 20260905222606 | 71 | 0 | 0.0 | 0.0 | 0.00 | 0.00 | 0.00 | 84 | 1014.9 |
| 20260905221406 | 72 | 0 | 0.0 | 0.0 | 0.00 | 0.00 | 0.00 | 84 | 1014.8 |
| 20260905220207 | 72 | 0 | 0.0 | 0.0 | 0.00 | 0.00 | 0.00 | 84 | 1014.8 |
| 20260905215007 | 72 | 0 | 0.0 | 0.0 | 0.00 | 0.00 | 0.00 | 84 | 1014.7 |
| 20260905213807 | 72 | 0 | 0.0 | 0.0 | 0.00 | 0.00 | 0.00 | 83 | 1014.6 |
| 20260905212606 | 72 | 0 | 0.0 | 0.0 | 0.00 | 0.00 | 0.00 | 80 | 1014.4 |
| 20260905211407 | 72 | 0 | 0.0 | 0.0 | 0.00 | 0.00 | 0.00 | 85 | 1014.5 |
| 20260905210206 | 73 | 0 | 0.0 | 1.0 | 0.00 | 0.00 | 0.00 | 82 | 1014.3 |
| 20260905205008 | 73 | 0 | 0.0 | 0.0 | 0.00 | 0.00 | 0.00 | 81 | 1014.4 |